User: anonymous   Login
Location: Unspecified
(20.0000°S, 0.0000°E)
Time: 17:16:27
(UTC+00:00)
Language:

KKS-1 - Orbit

View from above orbital plane
View from above orbital plane
View from above satellite
View from above satellite

Ground track
Ground track

The orbit data is extracted from the following two-line orbital elements,

1 33499U 09002H   21162.84364734  .00000121  00000-0  25647-4 0  9992
2 33499  98.2694  32.6912 0010316  62.6794 297.5463 14.75662847665582
Epoch (UTC): 11 June 2021 20:14:51
Eccentricity: 0.0010316
inclination: 98.2694°
perigee height: 636 km
apogee height: 650 km
right ascension of ascending node: 32.6912°
argument of perigee: 62.6794°
revolutions per day: 14.75662847
mean anomaly at epoch: 297.5463°
orbit number at epoch: 66558

The dashed part of the orbit path shows where the satellite is in the earth's shadow,  

DLR